Location: Arbon
(43.0005°N, 0.7472°E)
Time: 03:59:39
(UTC+00:00)

SR - Pass Details

Date: 01 December 2020
Orbit: 575 x 880 km, 66.7° (Epoch: 23 January)

Event Time Altitude Azimuth Distance (km) Brightness Sun altitude
Rises 19:35:46 0° 270° (W) 2,859 ? -34.5°
Reaches altitude 10° 19:39:28 10° 303° (WNW) 2,016 ? -35.2°
Enters shadow 19:40:51 12° 321° (NW) 1,922 ? -35.5°
